TimeCET,TemperatureF,Dew PointF,Humidity,Sea Level PressureIn,VisibilityMPH,Wind Direction,Wind SpeedMPH,Gust SpeedMPH,PrecipitationIn,Events,Conditions,WindDirDegrees,DateUTC
12:15 AM,48.2,44.6,87,29.68,-9999.0,SSE,6.7,-,N/A,,Clear,160,2013-03-07 23:15:00
12:45 AM,48.2,44.6,87,29.68,-9999.0,SSE,6.7,-,N/A,,Clear,160,2013-03-07 23:45:00
1:15 AM,48.2,42.8,82,29.68,-9999.0,SSE,6.7,-,N/A,,Clear,160,2013-03-08 00:15:00
1:45 AM,46.4,42.8,87,29.68,-9999.0,SSE,6.7,-,N/A,,Clear,160,2013-03-08 00:45:00
2:15 AM,46.4,42.8,87,29.68,-9999.0,South,6.7,-,N/A,,Clear,170,2013-03-08 01:15:00
2:45 AM,46.4,42.8,87,29.68,-9999.0,SSE,6.7,-,N/A,,Clear,160,2013-03-08 01:45:00
3:15 AM,46.4,42.8,87,29.68,-9999.0,SSE,6.7,-,N/A,,Clear,150,2013-03-08 02:15:00
3:45 AM,46.4,42.8,87,29.68,-9999.0,SSE,4.5,-,N/A,,Clear,150,2013-03-08 02:45:00
4:15 AM,46.4,42.8,87,29.68,-9999.0,SSE,6.7,-,N/A,,Clear,160,2013-03-08 03:15:00
4:45 AM,46.4,42.8,87,29.65,-9999.0,SSE,6.7,-,N/A,,Clear,150,2013-03-08 03:45:00
5:15 AM,44.6,42.8,93,29.65,-9999.0,SSE,6.7,-,N/A,,Clear,150,2013-03-08 04:15:00
5:45 AM,-9999,-9999,N/A,-9999,5.0,SSE,6.7,-,N/A,,Overcast,150,2013-03-08 04:45:00
6:45 AM,46.4,42.8,87,29.65,-9999.0,SE,8.9,-,N/A,,Clear,140,2013-03-08 05:45:00
7:15 AM,46.4,42.8,87,29.65,5.0,SSE,8.9,-,N/A,,Unknown,160,2013-03-08 06:15:00
7:45 AM,46.4,42.8,87,29.68,5.0,SSE,8.9,-,N/A,,Unknown,150,2013-03-08 06:45:00
8:15 AM,48.2,42.8,82,29.68,5.0,SSE,8.9,-,N/A,,Unknown,150,2013-03-08 07:15:00
8:45 AM,-9999,-9999,N/A,-9999,3.7,South,6.7,-,N/A,Rain,Rain,170,2013-03-08 07:45:00
9:15 AM,50.0,44.6,82,29.68,-9999.0,SSE,8.9,-,N/A,,Clear,160,2013-03-08 08:15:00
9:45 AM,51.8,46.4,82,29.68,-9999.0,SSE,6.7,-,N/A,,Clear,160,2013-03-08 08:45:00
10:15 AM,53.6,46.4,77,29.68,-9999.0,SSE,8.9,-,N/A,,Clear,160,2013-03-08 09:15:00
10:45 AM,55.4,46.4,72,29.65,-9999.0,South,8.9,-,N/A,,Clear,170,2013-03-08 09:45:00
11:15 AM,57.2,48.2,72,29.65,6.2,South,11.2,-,N/A,,Mostly Cloudy,180,2013-03-08 10:15:00
11:45 AM,-9999,-9999,N/A,-9999,3.7,South,6.7,-,N/A,Rain,Rain,170,2013-03-08 10:45:00
12:15 PM,59.0,48.2,67,29.65,-9999.0,South,11.2,-,N/A,,Clear,180,2013-03-08 11:15:00
12:45 PM,62.6,48.2,59,29.62,6.2,South,11.2,-,N/A,,Mostly Cloudy,180,2013-03-08 11:45:00
1:15 PM,62.6,46.4,55,29.62,6.2,SSW,8.9,-,N/A,,Scattered Clouds,210,2013-03-08 12:15:00
2:15 PM,62.6,46.4,55,29.62,6.2,South,8.9,-,N/A,,Scattered Clouds,190,2013-03-08 13:15:00
2:45 PM,-9999,-9999,N/A,-9999,3.7,South,6.7,-,N/A,Rain,Rain Showers,170,2013-03-08 13:45:00
3:15 PM,62.6,46.4,55,29.59,6.2,SSW,6.7,-,N/A,,Scattered Clouds,200,2013-03-08 14:15:00
3:45 PM,64.4,46.4,52,29.59,6.2,SSW,6.7,-,N/A,,Scattered Clouds,200,2013-03-08 14:45:00
4:15 PM,62.6,46.4,55,29.59,6.2,South,4.5,-,N/A,,Mostly Cloudy,190,2013-03-08 15:15:00
4:45 PM,60.8,48.2,63,29.59,6.2,South,4.5,-,N/A,,Mostly Cloudy,190,2013-03-08 15:45:00
5:15 PM,59.0,48.2,67,29.59,6.2,NNW,6.7,-,N/A,,Mostly Cloudy,340,2013-03-08 16:15:00
5:40 PM,57.2,48.2,72,29.59,6.2,North,6.7,-,N/A,Rain,Light Rain Showers,10,2013-03-08 16:40:00
5:45 PM,-9999,-9999,N/A,-9999,6.2,South,6.7,-,N/A,,Mostly Cloudy,170,2013-03-08 16:45:00
6:15 PM,53.6,50.0,88,29.59,6.2,NNE,6.7,-,N/A,Rain,Light Rain Showers,20,2013-03-08 17:15:00
6:25 PM,-9999,-9999,N/A,-9999,6.2,South,6.7,-,N/A,,Mostly Cloudy,170,2013-03-08 17:25:00
6:28 PM,53.6,50.0,88,29.62,5.0,NNE,6.7,-,N/A,Rain-Thunderstorm,Light Thunderstorms and Rain,30,2013-03-08 17:28:00
6:45 PM,53.6,50.0,88,29.62,5.0,North,8.9,-,N/A,Rain-Thunderstorm,Light Thunderstorms and Rain,350,2013-03-08 17:45:00
7:12 PM,51.8,50.0,94,29.62,5.0,North,6.7,-,N/A,,Scattered Clouds,10,2013-03-08 18:12:00
7:15 PM,51.8,50.0,94,29.62,5.0,North,6.7,-,N/A,,Scattered Clouds,10,2013-03-08 18:15:00
7:45 PM,51.8,50.0,94,29.59,3.7,NNE,4.5,-,N/A,,Unknown,20,2013-03-08 18:45:00
8:15 PM,51.8,50.0,94,29.59,3.7,East,6.7,-,N/A,,Unknown,80,2013-03-08 19:15:00
8:45 PM,-9999,-9999,N/A,-9999,3.1,East,6.7,-,N/A,,Mostly Cloudy,90,2013-03-08 19:45:00
9:09 PM,48.2,48.2,100,29.59,3.1,NE,4.5,-,N/A,,Scattered Clouds,50,2013-03-08 20:09:00
9:15 PM,-9999,-9999,N/A,-9999,3.1,Variable,4.5,-,N/A,Fog,Fog,0,2013-03-08 20:15:00
9:33 PM,48.2,46.4,93,29.59,0.9,Calm,Calm,-,N/A,Fog,Partly Cloudy,0,2013-03-08 20:33:00
9:38 PM,48.2,46.4,93,29.59,0.3,ENE,2.2,-,N/A,Fog,Fog,70,2013-03-08 20:38:00
9:45 PM,-9999,-9999,N/A,-9999,1.9,Variable,4.5,-,N/A,,Mist,0,2013-03-08 20:45:00
10:00 PM,-9999,-9999,N/A,-9999,0.3,Variable,4.5,-,N/A,Fog,Fog,0,2013-03-08 21:00:00
10:15 PM,48.2,46.4,93,29.59,0.3,Calm,Calm,-,N/A,Fog,Fog,0,2013-03-08 21:15:00
10:45 PM,46.4,46.4,100,29.59,0.2,NE,2.2,-,N/A,Fog,Fog,50,2013-03-08 21:45:00
10:53 PM,46.4,46.4,100,29.59,0.1,ENE,4.5,-,N/A,Fog,Fog,60,2013-03-08 21:53:00
10:55 PM,-9999,-9999,N/A,-9999,0.1,Variable,4.5,-,N/A,Fog,Fog,0,2013-03-08 21:55:00
11:15 PM,46.4,44.6,93,29.59,0.1,Calm,Calm,-,N/A,Fog,Fog,0,2013-03-08 22:15:00
11:45 PM,-9999,-9999,N/A,-9999,0.5,North,-9999.0,-,N/A,Fog,Fog,0,2013-03-08 22:45:00
11:55 PM,46.4,44.6,93,29.59,0.1,Calm,Calm,-,N/A,Fog-Rain,Light Rain Showers,0,2013-03-08 22:55:00